Location: Agenbach
(47.2667°N, 11.4500°E)
Time: 07:39:44
(UTC+00:00)

CZ-2D R/B - Pass Details

Date: 07 June 2020
Orbit: 791 x 846 km, 98.7° (Epoch: 04 July)

Event Time Altitude Azimuth Distance (km) Brightness Sun altitude
Rises 02:04:50 0° 6° (N) 3,311 6.3 -10.0°
Reaches altitude 10° 02:07:26 10° 355° (N) 2,373 5.2 -9.7°
Maximum altitude 02:11:52 29° 297° (WNW) 1,419 3.3 -9.2°
Drops below altitude 10° 02:16:17 10° 239° (WSW) 2,355 3.9 -8.7°
Enters shadow 02:16:22 10° 238° (WSW) 2,380 3.9 -8.7°
